[[{"header":{"parameterUnit":"m.s-1","parameterCategory":1,"la1":30.2991,"la2":30.254,"lo1":-89.0895,"lo2":-89.0444,"dy":0.0017,"dx":0.0017,"nx":28,"ny":28,"refTime":"2025-11-13T09:00:00:Z","depth":0,"parameterNumber":2,"parameterNumberName":"U-component_of_WINDS"},"data":[0,0,0,0,0,0,0,0,0,0,0,0,0,0,0,0,0,0,0,0,0,0,0,0,0,0,0,0,0,0,0,0,0,0,0,0,0,0,0,0,0,0,0,0,0,0,0,0,0,0,0,0,0,0,0,0,0,0,-0.042,-0.0418,0,-0.025,-0.0248,-0.0247,-0.0195,-0.0196,-0.0196,-0.0197,-0.0018,-0.0013,-0.0007,0,0,0,0,0,0,0,0,0,0,0,0,0,-0.0696,-0.0691,-0.042,-0.0418,-0.0416,-0.0251,-0.0248,-0.0246,-0.0195,-0.0196,-0.0197,-0.0198,-0.002,-0.0014,-0.0007,0,0,0,0,0,0,0,0,0,0,0,0,0,-0.0556,-0.069,-0.042,-0.037,-0.0364,-0.0251,-0.0248,-0.0245,-0.0194,-0.0196,-0.0197,-0.0198,-0.0022,-0.0014,-0.0006,0.0071,0,0,0.0019,0.0023,0,0,0,0,0,0,0,0,-0.0564,-0.0546,-0.038,-0.0374,-0.0367,-0.0245,-0.028,-0.0139,-0.0194,-0.0259,-0.0197,-0.0199,-0.0092,-0.0078,-0.0044,0.0079,0.0087,0.002,0.0025,0.0029,0.0031,0,0,0,0,0,0,0,-0.0574,-0.0553,-0.0353,-0.0378,-0.0369,-0.0355,-0.0337,-0.0253,-0.017,-0.0253,-0.0249,-0.023,-0.0089,-0.0052,-0.0039,0.009,0.002,0.0027,0.0032,0.0036,0.0284,0.0285,0,0,0,0,0,0,-0.0593,-0.0562,-0.0358,-0.0348,-0.0471,-0.0349,-0.0329,-0.0283,-0.0171,-0.0155,-0.0229,-0.0228,-0.0065,-0.0049,-0.0033,0.0065,0.0029,0.0037,0.0041,0.0282,0.0284,0.0286,0,0,0,0,0,0,-0.0599,-0.0575,-0.0365,-0.0453,-0.0426,-0.0343,-0.0292,-0.0279,-0.0241,-0.0153,-0.0137,-0.0206,-0.0066,-0.0044,0.0044,0.0072,0.004,0.0048,0.028,0.0283,0.0285,0.0261,0,0,0,0,0,0,-0.0607,-0.0578,-0.0548,-0.0453,-0.0421,-0.0292,-0.029,-0.0274,-0.0228,-0.0225,-0.0128,-0.0113,-0.0065,0.0032,0.0053,0.0083,0.0054,0.0278,0.0281,0.0284,0.0259,0.0262,0.0264,0,0,0,0,0,-0.0617,-0.056,-0.0547,-0.0522,-0.0383,-0.029,-0.0272,-0.022,-0.0226,-0.0195,-0.0139,-0.0116,0.0065,0.004,0.0064,0.0098,0.0277,0.028,0.0284,0.0258,0.0261,0.0264,0,0,0,0,0,0,-0.0651,-0.0547,-0.0531,-0.0442,-0.0376,-0.0282,-0.0241,-0.0218,-0.0147,-0.0148,-0.0085,-0.0063,0.0021,0.0068,0.0039,0.0177,0.0172,0.018,0.0144,0.0148,0.015,0.0138,0.0061,0,0,0,0,0,-0.0649,-0.0584,-0.0496,-0.0426,-0.0394,-0.0324,-0.0281,-0.0248,-0.0176,-0.0147,-0.0084,-0.0014,0.0059,0.0106,0.0177,0.0265,0.0288,0.03,0.0302,0.0304,0.0311,0.0361,0.0367,0.0297,0.0297,0.0297,0,0,-0.0642,-0.0577,-0.054,-0.0431,-0.0376,-0.0309,-0.03,-0.0229,-0.0179,-0.0135,-0.0048,-0.0,0.0082,0.0171,0.0213,0.0213,0.0335,0.0308,0.0309,0.0316,0.0365,0.0372,0.0377,0.03,0.0299,0.0299,0,0,-0.0596,-0.0541,-0.0477,-0.0423,-0.034,-0.0294,-0.0279,-0.019,-0.0156,-0.0069,-0.0035,0.0026,0.015,0.0207,0.0252,0.0316,0.034,0.0337,0.035,0.0398,0.0404,0.0409,0.0432,0.044,0.0344,0.0344,0.0344,0,-0.0597,-0.0497,-0.0446,-0.0378,-0.0331,-0.0292,-0.0226,-0.0175,-0.0073,-0.0041,-0.0044,0.011,0.0169,0.0271,0.0286,0.0321,0.0341,0.0328,0.0398,0.0404,0.041,0.0433,0.0441,0.0343,0.0343,0.0343,0.0343,0,-0.0503,-0.0434,-0.0392,-0.0297,-0.0245,-0.0179,-0.0117,-0.0071,-0.0043,0.0003,0.0092,0.0162,0.0248,0.0274,0.0304,0.0381,0.0378,0.0386,0.0382,0.0415,0.0438,0.0447,0.0342,0.0342,0.0342,0.0343,0,0,-0.047,-0.035,-0.0335,-0.0292,-0.02,-0.0145,-0.0077,0.0005,0.0043,0.0111,0.0171,0.0273,0.028,0.0331,0.0367,0.0408,0.0454,0.0411,0.0414,0.0418,0.0543,0.0538,0.0547,0.0469,0.0471,0.0473,0.0537,0,-0.0411,-0.0289,-0.0243,-0.0143,-0.0078,-0.0042,0.0018,0.0081,0.0125,0.0187,0.0236,0.0308,0.0311,0.0342,0.0385,0.044,0.0481,0.0436,0.0527,0.0529,0.0507,0.0559,0.0554,0.0611,0.0546,0.0547,0.0549,0,-0.0324,-0.0258,-0.0152,-0.007,-0.0041,0.0011,0.0089,0.0147,0.022,0.0249,0.0304,0.0336,0.0409,0.0398,0.05,0.0468,0.0508,0.054,0.0543,0.0556,0.0542,0.0574,0.0631,0.064,0.0563,0.0562,0.0561,0,-0.031,-0.0194,-0.0116,-0.008,0.0018,0.0053,0.0096,0.0167,0.0213,0.0281,0.0311,0.0387,0.043,0.0488,0.0541,0.0527,0.0638,0.0631,0.0665,0.0664,0.0689,0.0687,0.0754,0.0711,0.0711,0.0711,0.0711,0,-0.0248,-0.0184,-0.0109,-0.006,0.0012,0.0064,0.0134,0.0179,0.0241,0.03,0.0336,0.039,0.0454,0.0517,0.0558,0.0636,0.0655,0.0682,0.0692,0.0679,0.0676,0.0708,0.0706,0.0713,0.0713,0.0712,0.0712,0,-0.0218,-0.0165,-0.0077,0.0007,0.0029,0.0079,0.0152,0.02,0.0244,0.0317,0.0337,0.0407,0.0483,0.0539,0.0638,0.0665,0.0749,0.0759,0.0724,0.073,0.0761,0.0757,0.0852,0.0867,0.0812,0.0813,0.0813,0,-0.0181,-0.0132,-0.0043,-0.0003,0.0039,0.0104,0.015,0.0202,0.0249,0.0333,0.0372,0.0448,0.0513,0.0632,0.0692,0.0767,0.0781,0.0808,0.0793,0.0778,0.0782,0.0779,0.0785,0.0811,0.0812,0.0812,0.0812,0,-0.012,-0.0097,-0.0033,0.0039,0.0092,0.0153,0.0214,0.0245,0.0308,0.0359,0.0435,0.0484,0.0583,0.0659,0.074,0.0785,0.081,0.0816,0.0828,0.0817,0.0795,0.0808,0.0731,0.0814,0.0814,0.0814,0.0814,0.0814,-0.0084,-0.0039,0.0029,0.0099,0.0149,0.0205,0.0254,0.0303,0.0367,0.045,0.0476,0.0555,0.0625,0.0735,0.078,0.0843,0.0843,0.0861,0.0866,0.0869,0.0869,0.0782,0.0858,0.0858,0.0858,0.0858,0.0858,0,-0.0021,0.0024,0.0087,0.017,0.0225,0.0239,0.0307,0.0352,0.042,0.0482,0.0544,0.063,0.0704,0.0768,0.0845,0.0882,0.0896,0.0901,0.09,0.091,0.0863,0.0846,0.0889,0.0889,0.0889,0.0889,0.0889,0.0889,0.0019,0.0096,0.0126,0.0228,0.0273,0.0349,0.0386,0.0437,0.0487,0.0581,0.0642,0.0682,0.0745,0.0826,0.0894,0.0911,0.0938,0.0941,0.0961,0.0917,0.0913,0.091,0.0893,0.0946,0.0946,0.1002,0.1003,0.1003]},{"header":{"parameterUnit":"m.s-1","parameterCategory":1,"la1":30.2991,"la2":30.254,"lo1":-89.0895,"lo2":-89.0444,"dy":0.0017,"dx":0.0017,"nx":28,"ny":28,"refTime":"2025-11-13T09:00:00:Z","depth":0,"parameterNumber":3,"parameterNumberName":"V-component_of_WINDS"},"data":[0,0,0,0,0,0,0,0,0,0,0,0,0,0,0,0,0,0,0,0,0,0,0,0,0,0,0,0,0,0,0,0,0,0,0,0,0,0,0,0,0,0,0,0,0,0,0,0,0,0,0,0,0,0,0,0,0,0,-0.2947,-0.2947,0,-0.2904,-0.2904,-0.2903,-0.2962,-0.2964,-0.2966,-0.2968,-0.292,-0.2917,-0.2914,0,0,0,0,0,0,0,0,0,0,0,0,0,-0.308,-0.3077,-0.2947,-0.2947,-0.2946,-0.2904,-0.2904,-0.2903,-0.2962,-0.2964,-0.2967,-0.2969,-0.2921,-0.2917,-0.2914,0,0,0,0,0,0,0,0,0,0,0,0,0,-0.3028,-0.3076,-0.2948,-0.2971,-0.2972,-0.2905,-0.2904,-0.2903,-0.2961,-0.2964,-0.2968,-0.2971,-0.2923,-0.2918,-0.2913,-0.2819,0,0,-0.2898,-0.2896,0,0,0,0,0,0,0,0,-0.3031,-0.3023,-0.2968,-0.2969,-0.2971,-0.2942,-0.2933,-0.2875,-0.296,-0.2965,-0.2968,-0.2972,-0.2925,-0.292,-0.2905,-0.2817,-0.2815,-0.2898,-0.2895,-0.2893,-0.2891,0,0,0,0,0,0,0,-0.3034,-0.3025,-0.293,-0.2967,-0.2969,-0.2983,-0.2979,-0.2922,-0.2927,-0.2965,-0.2969,-0.2964,-0.2926,-0.2909,-0.2904,-0.2814,-0.2898,-0.2893,-0.289,-0.2888,-0.2654,-0.2651,0,0,0,0,0,0,-0.3036,-0.3028,-0.2932,-0.2929,-0.3009,-0.2978,-0.2974,-0.2948,-0.2928,-0.2928,-0.2961,-0.2967,-0.2916,-0.2909,-0.2902,-0.2795,-0.2893,-0.2888,-0.2885,-0.2657,-0.2653,-0.2649,0,0,0,0,0,0,-0.3038,-0.3026,-0.2933,-0.298,-0.2969,-0.2972,-0.2943,-0.2945,-0.2929,-0.2925,-0.2926,-0.2943,-0.2918,-0.2909,-0.2841,-0.2794,-0.2886,-0.2881,-0.2661,-0.2656,-0.2651,-0.2578,0,0,0,0,0,0,-0.3042,-0.3027,-0.2991,-0.2978,-0.2966,-0.2872,-0.294,-0.2942,-0.2921,-0.2927,-0.2909,-0.2908,-0.292,-0.2848,-0.2836,-0.2789,-0.2878,-0.2665,-0.2659,-0.2653,-0.2585,-0.2571,-0.256,0,0,0,0,0,-0.3046,-0.297,-0.2989,-0.2977,-0.2922,-0.287,-0.2863,-0.2879,-0.2916,-0.2881,-0.288,-0.2909,-0.2801,-0.2841,-0.2828,-0.2779,-0.2668,-0.266,-0.2653,-0.259,-0.2574,-0.256,0,0,0,0,0,0,-0.2973,-0.2968,-0.2989,-0.2907,-0.2889,-0.288,-0.2835,-0.286,-0.2829,-0.2837,-0.2857,-0.2852,-0.278,-0.2772,-0.2816,-0.269,-0.2741,-0.2731,-0.2698,-0.2682,-0.267,-0.2674,-0.2873,0,0,0,0,0,-0.2949,-0.2908,-0.2905,-0.2832,-0.2823,-0.283,-0.2808,-0.2823,-0.2804,-0.2796,-0.2789,-0.2769,-0.2732,-0.2706,-0.2671,-0.2584,-0.2583,-0.2544,-0.2532,-0.2522,-0.2513,-0.2471,-0.2455,-0.2625,-0.2625,-0.2625,0,0,-0.2895,-0.2887,-0.2859,-0.2818,-0.2805,-0.2763,-0.2823,-0.2774,-0.2744,-0.2788,-0.2725,-0.272,-0.2699,-0.2623,-0.2588,-0.2614,-0.2466,-0.2512,-0.2504,-0.2501,-0.2462,-0.2446,-0.2431,-0.262,-0.2621,-0.2622,0,0,-0.2777,-0.2766,-0.2707,-0.2695,-0.2677,-0.2683,-0.2669,-0.2658,-0.2657,-0.2594,-0.2628,-0.2592,-0.2525,-0.2511,-0.2495,-0.2378,-0.2405,-0.2365,-0.23,-0.2259,-0.2246,-0.2234,-0.2196,-0.2182,-0.2356,-0.2356,-0.2356,0,-0.2712,-0.2651,-0.2672,-0.2624,-0.2606,-0.2647,-0.2589,-0.2575,-0.2545,-0.2532,-0.2562,-0.2483,-0.2472,-0.2395,-0.2367,-0.2351,-0.2338,-0.2367,-0.2246,-0.2235,-0.2224,-0.2188,-0.2173,-0.2352,-0.2352,-0.2353,-0.2353,0,-0.2575,-0.2532,-0.2486,-0.2461,-0.2438,-0.2384,-0.2398,-0.2372,-0.239,-0.2394,-0.2332,-0.232,-0.2286,-0.2269,-0.2283,-0.2195,-0.2212,-0.2243,-0.2295,-0.2203,-0.217,-0.2156,-0.2345,-0.2347,-0.2348,-0.2349,0,0,-0.2406,-0.2398,-0.2381,-0.2373,-0.2358,-0.2326,-0.2275,-0.2244,-0.2223,-0.2202,-0.2162,-0.2108,-0.2139,-0.212,-0.2135,-0.2098,-0.2012,-0.2135,-0.2135,-0.2115,-0.1918,-0.1896,-0.1879,-0.203,-0.2027,-0.2025,-0.1921,0,-0.2291,-0.2207,-0.2227,-0.2143,-0.2106,-0.2148,-0.2104,-0.2091,-0.2095,-0.2064,-0.2067,-0.203,-0.2071,-0.2062,-0.2027,-0.2029,-0.1973,-0.2037,-0.1994,-0.1992,-0.2,-0.1861,-0.1837,-0.1739,-0.1907,-0.1905,-0.1904,0,-0.2145,-0.2124,-0.2037,-0.2034,-0.2019,-0.198,-0.1956,-0.1926,-0.1913,-0.1919,-0.1901,-0.1924,-0.1876,-0.1929,-0.1864,-0.1908,-0.1891,-0.189,-0.1887,-0.1884,-0.1943,-0.1858,-0.1708,-0.1694,-0.1882,-0.1884,-0.1886,0,-0.2036,-0.1984,-0.1928,-0.1918,-0.1912,-0.1885,-0.1881,-0.1872,-0.1854,-0.1832,-0.1822,-0.1794,-0.1779,-0.1758,-0.1773,-0.181,-0.1708,-0.176,-0.1712,-0.1712,-0.1689,-0.1691,-0.1537,-0.1675,-0.1675,-0.1676,-0.1676,0,-0.1906,-0.1852,-0.1879,-0.1844,-0.1786,-0.1811,-0.1753,-0.1753,-0.1746,-0.1713,-0.1746,-0.1714,-0.1736,-0.1706,-0.1718,-0.1665,-0.1657,-0.1661,-0.1665,-0.1659,-0.1659,-0.165,-0.1658,-0.1672,-0.1673,-0.1673,-0.1674,0,-0.1773,-0.1789,-0.1731,-0.1732,-0.1732,-0.1689,-0.1691,-0.1659,-0.1667,-0.1625,-0.1616,-0.1628,-0.1595,-0.1609,-0.1573,-0.1581,-0.1515,-0.1526,-0.152,-0.1524,-0.1476,-0.1481,-0.1312,-0.1293,-0.1441,-0.144,-0.1438,0,-0.169,-0.1651,-0.165,-0.1632,-0.1627,-0.1596,-0.1579,-0.1603,-0.1584,-0.1571,-0.1541,-0.1512,-0.149,-0.1436,-0.1441,-0.1415,-0.1428,-0.1371,-0.1424,-0.1421,-0.1431,-0.1434,-0.1432,-0.136,-0.1359,-0.1357,-0.1356,0,-0.1543,-0.1555,-0.153,-0.151,-0.149,-0.1474,-0.1461,-0.1444,-0.1468,-0.1445,-0.1414,-0.1398,-0.1364,-0.1336,-0.1314,-0.131,-0.1338,-0.134,-0.1328,-0.1322,-0.1321,-0.1325,-0.1493,-0.1343,-0.1345,-0.1346,-0.1346,-0.1347,-0.1435,-0.1404,-0.1401,-0.1374,-0.1368,-0.1356,-0.1329,-0.1335,-0.131,-0.1287,-0.1302,-0.1266,-0.1259,-0.1233,-0.1227,-0.12,-0.1222,-0.1204,-0.12,-0.1195,-0.1191,-0.1325,-0.1195,-0.1195,-0.1196,-0.1196,-0.1196,0,-0.1292,-0.1294,-0.1269,-0.1253,-0.1232,-0.1263,-0.1251,-0.1232,-0.1201,-0.1193,-0.1173,-0.1139,-0.1113,-0.1118,-0.1095,-0.1073,-0.1085,-0.1066,-0.1069,-0.1068,-0.117,-0.1184,-0.1057,-0.1057,-0.1057,-0.1057,-0.1057,-0.1057,-0.1216,-0.1167,-0.1178,-0.1128,-0.1129,-0.1097,-0.1088,-0.1079,-0.1073,-0.1035,-0.1015,-0.102,-0.1018,-0.0996,-0.0974,-0.0977,-0.0968,-0.0945,-0.0952,-0.1047,-0.106,-0.1074,-0.1087,-0.0942,-0.0942,-0.0853,-0.0852,-0.0851]}]]